This is the latest recevied weather packets stored in our database for station/object W7PLC. If no packets are shown the sender has not sent any weather packets the latest 10 day(s).
| Time | Temp. | Humidity | Pressure | Rain* | Wind** | Luminosity | Snow |
|---|---|---|---|---|---|---|---|
| 1777603767 | 20° C | 53% | 1013 hPa | 0 mm | - | 8 W/m² | - |
| 1777603462 | 20° C | 51% | 1013.2 hPa | 0 mm | - | 10 W/m² | - |
| 1777603158 | 20° C | 50% | 1013.3 hPa | 0 mm | - | 12 W/m² | - |
| 1777602854 | 20.56° C | 50% | 1013.1 hPa | 0 mm | - | 13 W/m² | - |
| 1777602549 | 20.56° C | 50% | 1013.3 hPa | 0 mm | - | 14 W/m² | - |
| 1777602245 | 20.56° C | 49% | 1013.4 hPa | 0 mm | - | 15 W/m² | - |
| 1777601940 | 20.56° C | 49% | 1013.3 hPa | 0 mm | - | 15 W/m² | - |
| 1777601635 | 21.11° C | 48% | 1013.3 hPa | 0 mm | - | 16 W/m² | - |
| 1777601331 | 21.11° C | 49% | 1013.3 hPa | 0 mm | - | 15 W/m² | - |
| 1777601028 | 21.67° C | 48% | 1013.3 hPa | 0 mm | - | 16 W/m² | - |
| 1777600724 | 22.22° C | 46% | 1013.6 hPa | 0 mm | - | 16 W/m² | - |
| 1777600421 | 22.78° C | 45% | 1013.2 hPa | 0 mm | - | 16 W/m² | - |
| 1777600116 | 23.89° C | 42% | 1013.4 hPa | 0 mm | - | 16 W/m² | - |
| 1777599812 | 24.44° C | 34% | 1013.5 hPa | 0 mm | - | 17 W/m² | - |
| 1777599508 | 24.44° C | 34% | 1013.3 hPa | 0 mm | - | 18 W/m² | - |
| 1777599205 | 24.44° C | 34% | 1013.5 hPa | 0 mm | - | 19 W/m² | - |
| 1777598901 | 25° C | 37% | 1013.5 hPa | 0 mm | - | 22 W/m² | - |
| 1777598599 | 25° C | 32% | 1013.4 hPa | 0 mm | - | 23 W/m² | - |
| 1777598295 | 25° C | 32% | 1013.6 hPa | 0 mm | - | 24 W/m² | - |
| 1777597993 | 25.56° C | 32% | 1013.5 hPa | 0 mm | - | 25 W/m² | - |
| 1777597691 | 25.56° C | 30% | 1013.7 hPa | 0 mm | - | 26 W/m² | - |
| 1777597388 | 26.67° C | 31% | 1013.7 hPa | 0 mm | - | 26 W/m² | - |
| 1777597083 | 26.67° C | 32% | 1013.7 hPa | 0 mm | - | 27 W/m² | - |
| 1777596780 | 26.11° C | 32% | 1013.5 hPa | 0 mm | - | 29 W/m² | - |
| 1777596475 | 26.67° C | 32% | 1013.7 hPa | 0 mm | - | 77 W/m² | - |
* Rain latest hour (hover to see other rain measurements)
** Current wind speed in m/s (hover to see current wind gust speed)